Location: Godzisko
(49.9648°N, 19.4576°E)
Time: 07:06:58
(UTC+00:00)

IKONOS-2 - Pass Details

Date: 20 April 2021
Orbit: 600 x 610 km, 98.2° (Epoch: 05 May)

Event Time Altitude Azimuth Distance (km) Brightness Sun altitude
Exits shadow 01:22:52 34° 178° (S) 1,012 5.3 -19.1°
Maximum altitude 01:24:40 74° 256° (WSW) 640 4.4 -18.9°
Drops below altitude 10° 01:28:58 10° 343° (NNW) 1,978 7.5 -18.4°
Sets 01:31:10 0° 345° (NNW) 2,888 8.4 -18.1°
